Regional Weather Roundup
Issued by NWS

Home | Current Version | Previous Version | Graphics & Text | Print | Product List | Glossary On
Versions: 1 2 3 4 5 6 7 8 9 10 11 12 13 14 15 16 17 18 19 20 21 22 23 24 25 26 27 28 29 30 31 32 33 34 35 36 37 38 39 40 41 42 43 44 45 46 47 48 49 50
000
ASUS44 KMEG 271310
RWRTN
TENNESSEE HOURLY STATE WEATHER ROUNDUP
NATIONAL WEATHER SERVICE MEMPHIS TN
800 AM CDT WED MAY 27 2015

TNZ002-004-019-021-049-052-054-088>092-271400-
WEST TENNESSEE

CITY           SKY/WX    TMP DP  RH WIND       PRES   REMARKS
MEMPHIS INTL   PTSUNNY   77  67  71 SW7       30.12R
JACKSON        MOSUNNY   72  67  84 S6        30.12R
DYERSBURG      MOSUNNY   72  57  60 CALM      30.12R
PARIS          CLOUDY    68  66  94 S5        30.13S
LEXINGTON      CLOUDY    70  68  94 CALM      30.14R
$$

TNZ008-025-027-028-033-062-065-066-271400-
NORTH MIDDLE TENNESSEE

CITY           SKY/WX    TMP DP  RH WIND       PRES   REMARKS
NASHVILLE      CLOUDY    72  68  87 S10       30.19R
CLARKSVILLE    PTSUNNY   69  67  93 S6        30.15R
SMYRNA         CLOUDY    71  68  90 S6        30.19R
COOKEVILLE     CLOUDY    70  66  88 S6        30.21S
CROSSVILLE     CLOUDY    67  62  84 S3        30.25R
$$

TNZ061-075-076-078-094-096-097-271400-
SOUTH MIDDLE TENNESSEE

CITY           SKY/WX    TMP DP  RH WIND       PRES   REMARKS
FAYETTEVILLE   CLOUDY   N/A N/A N/A MISG      30.21R
TULLAHOMA      CLOUDY    68  66  94 SW5       30.23R
WINCHESTER     PTSUNNY   72  66  83 S7        30.22R
MCMINNVILLE    CLOUDY    72  70  94 S5        30.22R
COLUMBIA       PTSUNNY   75  70  83 SW7       30.16S
SHELBYVILLE    PTSUNNY   72  70  94 S10       30.21R
$$

TNZ017-018-042-046-047-271400-
NORTHEAST TENNESSEE

CITY           SKY/WX    TMP DP  RH WIND       PRES   REMARKS
TRI CITIES     PTSUNNY   70  61  73 SW5       30.26S
ELIZABETHTON   SUNNY     66  63  88 CALM      30.27F
$$

TNZ012-013-036-069-073-074-271400-
CENTRAL EAST TENNESSEE

CITY           SKY/WX    TMP DP  RH WIND       PRES   REMARKS
KNOXVILLE      PTSUNNY   70  61  73 SW13      30.23R
OAK RIDGE      CLOUDY    69  63  81 VRB5      30.24S
GATLINBURG     SUNNY     70  61  73 CALM      30.23S
MORRISTOWN     MOSUNNY   72  63  73 SW7       30.25S
$$

TNZ083-085-099-271400-
SOUTHEAST TENNESSEE

CITY           SKY/WX    TMP DP  RH WIND       PRES   REMARKS
CHATTANOOGA    CLOUDY    69  65  86 S3        30.23R
$$

SKY/WX REPORTED AS FAIR MEANS FEW OR NO CLOUDS BELOW
12 THOUSAND FEET.



USA.gov is the U.S. government's official web portal to all federal, state and local government web resources and services.